This is the latest recevied weather packets stored in our database for station/object KC3QLX. If no packets are shown the sender has not sent any weather packets the latest 10 day(s).
| Time | Temp. | Humidity | Pressure | Rain* | Wind** | Luminosity | Snow |
|---|---|---|---|---|---|---|---|
| 1777637882 | 5° C | 99% | 1014.2 hPa | 0 mm | - | 53 W/m² | - |
| 1777637579 | 5° C | 99% | 1014.5 hPa | 0 mm | - | 105 W/m² | - |
| 1777637276 | 5° C | 99% | 1014.5 hPa | 0 mm | - | 62 W/m² | - |
| 1777636973 | 4.44° C | 99% | 1014.2 hPa | 0 mm | - | 100 W/m² | - |
| 1777636669 | 3.89° C | 99% | 1014.4 hPa | 0 mm | - | 116 W/m² | - |
| 1777636365 | 2.78° C | 99% | 1014.5 hPa | 0 mm | - | 80 W/m² | - |
| 1777636065 | 2.78° C | 99% | 1014.2 hPa | 0 mm | - | 43 W/m² | - |
| 1777635761 | 2.22° C | 99% | 1014.4 hPa | 0 mm | - | 39 W/m² | - |
| 1777635458 | 2.22° C | 99% | 1014.3 hPa | 0 mm | - | 38 W/m² | - |
| 1777635155 | 1.67° C | 99% | 1014.5 hPa | 0 mm | - | 36 W/m² | - |
| 1777634851 | 1.11° C | 99% | 1014.4 hPa | 0 mm | - | 35 W/m² | - |
| 1777634548 | 1.11° C | 99% | 1014.4 hPa | 0 mm | - | 34 W/m² | - |
| 1777634245 | 0.56° C | 99% | 1014.4 hPa | 0 mm | - | 33 W/m² | - |
| 1777633941 | 0.56° C | 99% | 1014.4 hPa | 0 mm | - | 30 W/m² | - |
| 1777633639 | 0.56° C | 99% | 1014.1 hPa | 0 mm | - | 29 W/m² | - |
| 1777633337 | 0.56° C | 99% | 1014.3 hPa | 0 mm | - | 27 W/m² | - |
| 1777633035 | 0.56° C | 99% | 1014.1 hPa | 0 mm | - | 25 W/m² | - |
| 1777632731 | 0.56° C | 99% | 1014.1 hPa | 0 mm | - | 23 W/m² | - |
| 1777632426 | 0.56° C | 99% | 1014.1 hPa | 0 mm | - | 21 W/m² | - |
| 1777632124 | 0.56° C | 99% | 1014.1 hPa | 0 mm | - | 18 W/m² | - |
| 1777631822 | 0.56° C | 99% | 1013.9 hPa | 0 mm | - | 17 W/m² | - |
| 1777631520 | 0.56° C | 99% | 1013.9 hPa | 0 mm | - | 14 W/m² | - |
| 1777631216 | 0.56° C | 99% | 1013.7 hPa | 0 mm | - | 12 W/m² | - |
| 1777630913 | 0.56° C | 99% | 1013.8 hPa | 0 mm | - | 9 W/m² | - |
| 1777630608 | 0.56° C | 99% | 1013.6 hPa | 0 mm | - | 6 W/m² | - |
* Rain latest hour (hover to see other rain measurements)
** Current wind speed in m/s (hover to see current wind gust speed)